Sunday, November 19, 2017, 2:51 AM GMT
Back to Local

CYYY, Mont Joli, Que.

Location: , , Canada Lat: 48.6
Local Time: 2:51 AM GMT ( 2:51 GMT) Lon: -68.217
Time Zone: GMT Elev: 157 ft

Show me the last for .
Show Coded

Time T Td Feel RH Dir Speed Gust Alt SLP Vis Weather Sky Remarks
2017-11-19 02:00 27 21 23 79 130° 3 - 29.69 29.70 15 FEW040 OVC095 None
2017-11-19 01:00 25 21 16 85 100° 8 - 29.72 29.74 15 OVC095 None
2017-11-19 00:00 25 21 20 85 160° 3 - 29.77 29.78 15 OVC095 None
2017-11-18 23:00 23 21 15 92 100° 7 - 29.74 29.75 30 FEW015 SCT100 OVC120 Pressure falling rapidly
2017-11-18 22:00 25 19 20 79 180° 3 - 29.76 29.78 30 OVC110 None
2017-11-18 21:00 25 19 19 79 190° 5 - 29.78 29.80 30 FEW020 OVC110 None
2017-11-18 20:00 25 18 20 73 220° 3 - 29.77 29.79 30 FEW016 OVC130 None
2017-11-18 19:00 25 18 16 73 250° 8 - 29.78 29.80 30 FEW016 OVC120 None
2017-11-18 18:00 25 18 18 73 250° 6 - 29.80 29.81 30 SCT016 OVC120 None
2017-11-18 17:00 25 18 15 73 260° 10 - 29.81 29.83 30 BKN016 OVC130 None
2017-11-18 16:00 23 18 8 79 240° 12 20 29.83 29.85 30 BKN015 None
2017-11-18 15:00 23 16 11 73 260° 13 - 29.86 29.88 30 BKN017 None
2017-11-18 14:00 23 18 13 79 270° 9 - 29.87 29.89 30 OVC017 None
2017-11-18 13:00 23 16 11 73 290° 13 - 29.86 29.88 30 BKN020 None
2017-11-18 12:00 21 16 9 79 300° 13 - 29.86 29.87 30 BKN020 None
2017-11-18 11:00 21 16 8 79 290° 14 - 29.83 29.85 15 BKN025 None
2017-11-18 10:00 23 16 8 73 280° 15 22 29.83 29.85 15 OVC020 None
2017-11-18 09:00 21 14 4 73 300° 18 25 29.82 29.83 15 OVC022 None
2017-11-18 08:00 21 16 5 79 280° 15 23 29.82 29.84 15 OVC020 None
2017-11-18 07:00 23 16 10 73 300° 16 - 29.81 29.83 15 OVC024 None
2017-11-18 06:00 23 16 10 73 290° 16 - 29.80 29.81 15 OVC023 None
2017-11-18 05:00 23 16 9 73 320° 18 - 29.80 29.81 15 OVC025 None
2017-11-18 04:00 25 18 8 73 310° 20 28 29.79 29.80 15 OVC025 None
2017-11-18 03:00 25 16 8 68 310° 22 28 29.78 29.79 15 OVC026 None

Support USWX by starting your Amazon purchase here.